THOR ABLESTAR DEB, 5265

Orbit data source: Space-Track

THOR ABLESTAR DEB, 5265 is space debris in LEO originally from a launch on Fri, 13 Aug 1965 UTC launched from the Air Force Western Test Range (AFWTR). Debris objects in space refer to the collection of defunct objects orbiting the Earth. Examples of debris include non-operational satellites, rocket bodies, and fragments generated from explosions, collisions, or faulty payload assembly.

Loading next visibility...
THOR ABLESTAR DEB details
Identifier
5265, 1965-065Q
Orbit
LEO
Last TLE update1 day ago
Origin
Flag of USUSN NAVAIR (US)
ManufacturerUnknown
MissionSpacecraft
Bus & MotorUnknown
MassUnknown
Launch date (UTC)
1965-08-13 (59 years ago)
Launch vehicleUnknown
Launch site
Air Force Western Test Range (AFWTR)
Object type
Payload
Rocket body
Debris
Shape & HBRUnknown
Radar Cross Section0.070 m², Small (<0.1 m²)

Expand to show TLE details & history

TLE from 1 day ago
0 THOR ABLESTAR DEB
1 05265U 65065Q   24355.63568466  .00000367  00000-0  63252-3 0  9990
2 05265  90.1531 298.1331 0043934 102.6615  21.5447 13.42244930899696
Epoch: 2024-12-20T15:15Z
Definitive object data (Epoch: 2024-12-20T15:15:23.154Z)
Latitude55.70138°
Longitude159.81156°
Altitude1,079.713 km
Speed7.332 km/s
True Right ascension07h 53m 25s
True Declination55° 32' 53"
Sunlit
Object was in full shadow at TLE epoch
Visualization TLE readout
Latitude-66.30335°
Longitude159.25635°
Altitude1,153.463 km
Speed7.262 km/s
Apparent Right ascension04h 11m 18s
Apparent Declination-61° 24' 57"
Sunlit
Object is in daylight
Visualization observer readout
Local Sidereal Time14:09:24
Azimuth210.687° SW
Elevation-61.608°
Doppler factor1
Orbital elements
Apogee altitude1,130.835 km
Perigee altitude1,065.144 km
Semi-major axis7,476.126 km
Eccentricity0.0043934
Inclination90.1531°
RAAN298.1331°
Arg. of periapsis102.6615°
True anomaly21.73053°
Mean anomaly21.5447°
Eccentric anomaly21.63752°
Mean motion3.35759 °/min
BSTAR0.00063252
Orbital period107.22 mins
Loading maneuver chart data...
Loading historical data...
Loading historical data...
Loading historical data...
Loading historical data...
Loading historical data...
Loading historical data...
Loading historical data...

THOR ABLESTAR DEB Visibility forecast

Observer location: undefined°, undefined

Span
Click to sort rows by Start time (UTC) header in descending order
Start Az.
Max El. time (UTC)
Max El. Az.
Max El.
End time (UTC)
End Az.
9 mins2024-12-21 19:24:09.646Z119.172° SE2024-12-21 19:29:09.646Z67.719° E20.87°2024-12-21 19:33:09.646Z28.306° NE
11 mins2024-12-21 21:10:09.646Z196.099° SSW2024-12-21 21:15:09.646Z268.027° W40.302°2024-12-21 21:21:09.646Z348.172° N
11 mins2024-12-22 08:24:09.646Z11.773° NNE2024-12-22 08:29:09.646Z97.858° ESE42.349°2024-12-22 08:35:09.646Z171.686° S
7 mins2024-12-22 10:12:09.646Z321.851° NNW2024-12-22 10:15:09.646Z290.821° WNW18.571°2024-12-22 10:19:09.646Z249.961° W
|